Flagstaff, Arizona, United States (86001)
Lat: 35.20N, Lon: 111.65W
Wx Zone: AZZ015
Local Info
Past Weather Observations for Thursday, August 14, 2014

NOTE: This archive is for the closest National Weather Service station to Flagstaff. Information may differ from the station used for current weather conditions.

Click here for Long-term Archive

Time Weather Temperature Dewpoint Humidity Pressure Winds Precip Visibility
23:57
Clear
55°F / 13°C 52°F / 11°C 88% 30.33 in
(1027 mb)
Calm - 10SM
22:57
Clear
55°F / 13°C 52°F / 11°C 88% 30.33 in
(1027 mb)
SSW 3.5 mph
(SSW 6 kph)
- 10SM
21:57
Clear
59°F / 15°C 52°F / 11°C 77% 30.33 in
(1027 mb)
SSW 3.5 mph
(SSW 6 kph)
- 10SM
20:57
Clear
61°F / 16°C 52°F / 11°C 72% 30.33 in
(1027 mb)
Calm - 10SM
19:57
Partly Cloudy
64°F / 18°C 50°F / 10°C 60% 30.33 in
(1027 mb)
N 10.4 mph
(N 17 kph)
- 10SM
18:57
Clear
66°F / 19°C 54°F / 12°C 64% 30.3 in
(1026 mb)
S 8.1 mph
(S 13 kph)
- 10SM
17:57
Clear
70°F / 21°C 54°F / 12°C 57% 30.27 in
(1025 mb)
S 10.4 mph
(S 17 kph)
- 10SM
16:57
Partly Cloudy
70°F / 21°C 54°F / 12°C 57% 30.3 in
(1026 mb)
SSE 12.7 mph
(SSE 20 kph)
- 10SM
15:57
Partly Cloudy
72°F / 22°C 54°F / 12°C 53% 30.3 in
(1026 mb)
W 10.4 mph
(W 17 kph)
- 10SM
14:57
Partly Cloudy
73°F / 23°C 52°F / 11°C 47% 30.3 in
(1026 mb)
SW 9.2 mph
(SW 15 kph)
- 10SM
13:57
Partly Cloudy
Cumulonimbus Clouds Observed
73°F / 23°C 48°F / 9°C 41% 30.33 in
(1027 mb)
S 8.1 mph
(S 13 kph)
- 10SM
13:16
Partly Cloudy
Cumulonimbus Clouds Observed
73°F / 23°C 50°F / 10°C 44% 30.33 in
(1027 mb)
SW 12.7 mph
(SW 20 kph)
- 10SM
12:57
Mostly Cloudy
Thunder Storms
72°F / 22°C 54°F / 12°C 53% 30.33 in
(1027 mb)
SSE 10.4 mph
(SSE 17 kph)
- 10SM
12:50
Mostly Cloudy
Thunder Storms
72°F / 22°C 54°F / 12°C 53% 30.33 in
(1027 mb)
SSE 11.5 mph
(SSE 19 kph)
- 10SM
11:57
Clear
72°F / 22°C 52°F / 11°C 50% 30.33 in
(1027 mb)
SSE 9.2 mph
(SSE 15 kph)
- 10SM
10:57
Partly Cloudy
70°F / 21°C 55°F / 13°C 60% 30.36 in
(1028 mb)
S 9.2 mph
(S 15 kph)
- 10SM
09:57
Partly Cloudy
66°F / 19°C 55°F / 13°C 68% 30.36 in
(1028 mb)
Variable 5.8 mph
(Variable 9 kph)
- 10SM
08:57
Clear
64°F / 18°C 57°F / 14°C 78% 30.36 in
(1028 mb)
SSE 8.1 mph
(SSE 13 kph)
- 10SM
07:57
Clear
63°F / 17°C 55°F / 13°C 77% 30.36 in
(1028 mb)
SW 4.6 mph
(SW 7 kph)
- 10SM
07:04
Clear
57°F / 14°C 55°F / 13°C 94% 30.33 in
(1027 mb)
Calm - 10SM
07:00
Mostly Cloudy
Fog And Mist
57°F / 14°C 55°F / 13°C 94% 30.33 in
(1027 mb)
Calm - 2SM
06:57
Obscured
Fog
57°F / 14°C 55°F / 13°C 94% 30.33 in
(1027 mb)
Calm - 1/2SM
06:07
Obscured
Fog And Mist
54°F / 12°C 54°F / 12°C 100% 30.33 in
(1027 mb)
Calm - 1/4SM
05:57
Mostly Cloudy
Fog And Mist
54°F / 12°C 52°F / 11°C 94% 30.33 in
(1027 mb)
Calm - 1 3/4SM
05:49
Mostly Cloudy
Fog And Mist
54°F / 12°C 52°F / 11°C 94% 30.33 in
(1027 mb)
Calm - 2 1/2SM
05:32
Partly Cloudy
Fog And Mist
54°F / 12°C 52°F / 11°C 94% 30.33 in
(1027 mb)
Calm - 4SM
05:22
Partly Cloudy
Fog And Mist
54°F / 12°C 54°F / 12°C 100% 30.33 in
(1027 mb)
Calm - 1 3/4SM
05:13
Partly Cloudy
Fog And Mist
55°F / 13°C 54°F / 12°C 94% 30.33 in
(1027 mb)
Calm - 4SM
04:57
Partly Cloudy
Fog And Mist
55°F / 13°C 54°F / 12°C 94% 30.33 in
(1027 mb)
Calm - 5SM
04:22
Mostly Cloudy
55°F / 13°C 54°F / 12°C 94% 30.33 in
(1027 mb)
Calm - 7SM
03:57
Overcast
57°F / 14°C 55°F / 13°C 94% 30.33 in
(1027 mb)
Calm - 8SM
03:50
Overcast
57°F / 14°C 55°F / 13°C 94% 30.33 in
(1027 mb)
Calm - 8SM
02:57
Overcast
55°F / 13°C 54°F / 12°C 94% 30.33 in
(1027 mb)
Calm - 9SM
01:57
Mostly Cloudy
54°F / 12°C 52°F / 11°C 94% 30.33 in
(1027 mb)
Calm - 8SM
01:55
Mostly Cloudy
54°F / 12°C 52°F / 11°C 94% 30.33 in
(1027 mb)
Calm - 8SM
01:33
Partly Cloudy
52°F / 11°C 50°F / 10°C 94% 30.33 in
(1027 mb)
Calm - 9SM
00:57
Clear
54°F / 12°C 52°F / 11°C 94% 30.33 in
(1027 mb)
Calm - 10SM
Time Weather Temperature Dewpoint Humidity Pressure Winds Precip Visibility


Weather for websites

WeatherForYou.com, LLC is not responsible for any damages or problems caused by this service. Current weather conditions are obtained from the closest station including government and personal stations which may have varying degrees of accuracy. Weather forecasts are derived from the NOAA NDFD. Like all things, this site belongs to Jesus Christ... He just trusts me to maintain it. If you have any questions or comments email webmaster@weatherforyou.com

Copyright © 2014, WeatherForYou.com LLC. All rights reserved.